Regional Weather Roundup
Issued by NWS Spokane, WA

Home | Current Version | Previous Version | Text Only | Print | Product List | Glossary On
Versions: 1 2 3 4 5 6 7 8 9 10 11 12 13 14 15 16 17 18 19 20 21 22 23 24 25 26 27 28 29 30 31 32 33 34 35 36 37 38 39 40 41 42 43 44 45 46 47 48 49 50
752
NZUS01 KOTX 051610
RWROTX
EASTERN WASHINGTON/NORTHERN IDAHO ROUNDUP
NATIONAL WEATHER SERVICE, SPOKANE WA
900 AM PDT THU MAY 05 2016

Note: "fair" indicated few or no clouds below 12,000 feet with no
significant weather and/or obstructions to visibility.

...NORTHEAST WASHINGTON AND NORTHERN IDAHO PANHANDLE...

CITY           SKY/WX    TMP DP  RH WIND       PRES   REMARKS
SPOKANE INTL   PTSUNNY   56  50  80 SE3       29.95R
SPOKANE DOWNTO CLOUDY    58  52  80 NE3       29.95S
COEUR D ALENE  PTSUNNY   57  52  82 NW6       29.92F
DEER PARK      CLOUDY    56  51  84 SE6       29.96R
SANDPOINT      PTSUNNY   59  52  77 CALM      29.95S

...SOUTHEAST WASHINGTON AND SOUTHERN IDAHO PANHANDLE...

CITY           SKY/WX    TMP DP  RH WIND       PRES   REMARKS
WALLA WALLA    MOSUNNY   61  53  75 SW3       29.92R
PULLMAN/MOSCOW MOSUNNY   61  51  70 N6        29.94F
LEWISTON       SUNNY     64  52  64 VRB5      29.90F
LOWELL           N/A     63  53  70 CALM      29.90F

...COLUMBIA BASIN...

CITY           SKY/WX    TMP DP  RH WIND       PRES   REMARKS
EPHRATA        CLOUDY    61  55  81 N7        29.92R
MOSES LAKE     CLOUDY    60  55  83 CALM      29.93S
TRI CITIES     PTSUNNY   64  55  72 W5        29.92S
HERMISTON      PTSUNNY   61  52  72 W8        29.92S
PENDLETON      MOSUNNY   59  52  77 W5        29.91F

...EAST SLOPES CASCADES...

CITY           SKY/WX    TMP DP  RH WIND       PRES   REMARKS
THE DALLES     CLOUDY    60  49  66 NW13      29.94S
YAKIMA         CLOUDY    62  47  57 N3        29.93S
ELLENSBURG     CLOUDY    57  46  66 NW12      29.94R
STAMPEDE PASS  FOG       40  39  97 VRB5      29.99S VSB<1/4
WENATCHEE      CLOUDY    57  50  77 SW3       29.94R
OMAK           LGT RAIN  56  51  84 N12G21    29.96R

...SOUTHERN BRITISH COLUMBIA...

CITY           SKY/WX    TMP DP  RH WIND       PRES   REMARKS
PENTICTON      LGT RAIN  55  50  82 NE8       30.01R
CASTLEGAR      CLOUDY    54  52  94 CALM      29.96R
CRANBROOK      CLOUDY    52  50  93 NE5       29.97R

...WESTERN MONTANA...

CITY           SKY/WX    TMP DP  RH WIND       PRES   REMARKS
MISSOULA       PTSUNNY   60  43  53 E5        29.95F

...NEIGHBORING CITIES...

CITY           SKY/WX    TMP DP  RH WIND       PRES   REMARKS
SEATTLE        PTSUNNY   56  44  64 N14       30.05S
CALGARY        LGT RAIN  46  36  66 N20G26    30.01R



USA.gov is the U.S. government's official web portal to all federal, state and local government web resources and services.